,,,PA_Meas_PMT16A,,PR_Meas_QMR101_102,,RH_Meas_QMH101,,SR_Meas_QMS101,,TA_Meas_QMH101,,GenWind,,GenWind,
date,time,status,PA,status,PR,status,RH,status,SR,status,TA,status,DirAvg,status,SpdAvg,
2009-11-04, 00:00:05,VALID,1008.86,VALID,0,VALID,86.5523,VALID,0,VALID,23.4194,VALID,81,VALID,0,
2009-11-04, 00:01:05,VALID,1008.87,VALID,0,VALID,86.5599,VALID,0,VALID,23.4407,VALID,81,VALID,0,
2009-11-04, 00:02:05,VALID,1008.89,VALID,0,VALID,86.5676,VALID,0,VALID,23.4212,VALID,81,VALID,0,
2009-11-04, 00:03:05,VALID,1008.88,VALID,0,VALID,86.5752,VALID,0,VALID,23.4017,VALID,81,VALID,0.0183594,
2009-11-04, 00:04:05,VALID,1008.85,VALID,0,VALID,86.5599,VALID,0,VALID,23.4017,VALID,81,VALID,0.112109,
2009-11-04, 00:05:05,VALID,1008.87,VALID,0,VALID,86.5599,VALID,0,VALID,23.4017,VALID,81,VALID,0,
2009-11-04, 00:06:05,VALID,1008.89,VALID,0,VALID,86.5599,VALID,0,VALID,23.4017,VALID,81,VALID,0,
2009-11-04, 00:07:05,VALID,1008.88,VALID,0,VALID,86.5599,VALID,0,VALID,23.3823,VALID,81,VALID,0,
2009-11-04, 00:08:05,VALID,1008.91,VALID,0,VALID,86.5523,VALID,0,VALID,23.3823,VALID,81,VALID,0.285937,
2009-11-04, 00:09:05,VALID,1008.9,VALID,0,VALID,86.5752,VALID,0,VALID,23.3628,VALID,81,VALID,0.345703,
2009-11-04, 00:10:05,VALID,1008.9,VALID,0,VALID,86.5752,VALID,0.105969,VALID,23.361,VALID,81,VALID,0.212109,
2009-11-04, 00:11:05,VALID,1008.9,VALID,0,VALID,86.5599,VALID,0.105969,VALID,23.3415,VALID,81,VALID,0.290234,
2009-11-04, 00:12:05,VALID,1008.9,VALID,0,VALID,86.5828,VALID,0.105969,VALID,23.361,VALID,81,VALID,0.34375,
2009-11-04, 00:13:05,VALID,1008.86,VALID,0,VALID,86.5599,VALID,0.105969,VALID,23.3415,VALID,108,VALID,0.410547,
2009-11-04, 00:14:05,VALID,1008.88,VALID,0,VALID,86.5676,VALID,0.211938,VALID,23.361,VALID,113,VALID,0.463281,
2009-11-04, 00:15:05,VALID,1008.88,VALID,0,VALID,86.5523,VALID,0.105969,VALID,23.361,VALID,116,VALID,0.439844,
2009-11-04, 00:16:05,VALID,1008.92,VALID,0,VALID,86.5447,VALID,0.105969,VALID,23.361,VALID,118,VALID,0.335156,
2009-11-04, 00:17:05,VALID,1008.92,VALID,0,VALID,86.5294,VALID,0.211938,VALID,23.361,VALID,119,VALID,0.317578,
2009-11-04, 00:18:05,VALID,1008.91,VALID,0,VALID,86.5447,VALID,0.105969,VALID,23.361,VALID,119,VALID,0.405078,
2009-11-04, 00:19:05,VALID,1008.91,VALID,0,VALID,86.5294,VALID,0.105969,VALID,23.3592,VALID,138,VALID,0.485938,
2009-11-04, 00:20:05,VALID,1008.91,VALID,0,VALID,86.4989,VALID,0.105969,VALID,23.3805,VALID,135,VALID,0.624219,
2009-11-04, 00:21:05,VALID,1008.87,VALID,0,VALID,86.476,VALID,0.105969,VALID,23.4,VALID,135,VALID,0.436719,
2009-11-04, 00:22:05,VALID,1008.89,VALID,0,VALID,86.4684,VALID,0.105969,VALID,23.4194,VALID,131,VALID,0.280859,
2009-11-04, 00:23:05,VALID,1008.86,VALID,0,VALID,86.476,VALID,0.105969,VALID,23.3982,VALID,112,VALID,0.362891,
2009-11-04, 00:24:05,VALID,1008.85,VALID,0,VALID,86.4913,VALID,0.105969,VALID,23.4194,VALID,112,VALID,0.301953,
2009-11-04, 00:25:05,VALID,1008.84,VALID,0,VALID,86.476,VALID,0,VALID,23.4017,VALID,112,VALID,0,
2009-11-04, 00:26:05,VALID,1008.82,VALID,0,VALID,86.476,VALID,0,VALID,23.423,VALID,112,VALID,0.138672,
2009-11-04, 00:27:05,VALID,1008.82,VALID,0,VALID,86.476,VALID,0,VALID,23.423,VALID,112,VALID,0.616016,
2009-11-04, 00:28:05,VALID,1008.85,VALID,0,VALID,86.4913,VALID,0,VALID,23.4017,VALID,112,VALID,0.448047,
2009-11-04, 00:29:05,VALID,1008.82,VALID,0,VALID,86.476,VALID,0,VALID,23.423,VALID,112,VALID,0.164844,
2009-11-04, 00:30:05,VALID,1008.8,VALID,0,VALID,86.4379,VALID,0,VALID,23.4212,VALID,112,VALID,0,
2009-11-04, 00:31:05,VALID,1008.77,VALID,0,VALID,86.4455,VALID,0,VALID,23.4212,VALID,112,VALID,0.189063,
2009-11-04, 00:32:05,VALID,1008.78,VALID,0,VALID,86.4303,VALID,0,VALID,23.4212,VALID,112,VALID,0.0546875,
2009-11-04, 00:33:05,VALID,1008.81,VALID,0,VALID,86.4608,VALID,0,VALID,23.4017,VALID,112,VALID,0.2625,
2009-11-04, 00:34:05,VALID,1008.78,VALID,0,VALID,86.4684,VALID,0,VALID,23.4017,VALID,112,VALID,0.384766,
2009-11-04, 00:35:05,VALID,1008.78,VALID,0,VALID,86.4684,VALID,0,VALID,23.4035,VALID,112,VALID,0.359375,
2009-11-04, 00:36:05,VALID,1008.78,VALID,0,VALID,86.4608,VALID,0,VALID,23.3823,VALID,104,VALID,0.458984,
2009-11-04, 00:37:05,VALID,1008.74,VALID,0,VALID,86.4303,VALID,0,VALID,23.423,VALID,103,VALID,0.509375,
2009-11-04, 00:38:05,VALID,1008.72,VALID,0,VALID,86.4303,VALID,0,VALID,23.423,VALID,95,VALID,0.154297,
2009-11-04, 00:39:05,VALID,1008.7,VALID,0,VALID,86.4379,VALID,0,VALID,23.423,VALID,95,VALID,0,
2009-11-04, 00:40:05,VALID,1008.7,VALID,0,VALID,86.4379,VALID,0.105969,VALID,23.4017,VALID,95,VALID,0,
2009-11-04, 00:41:05,VALID,1008.67,VALID,0,VALID,86.415,VALID,0.105969,VALID,23.4017,VALID,95,VALID,0,
2009-11-04, 00:42:05,VALID,1008.67,VALID,0,VALID,86.4303,VALID,0,VALID,23.4212,VALID,95,VALID,0,
2009-11-04, 00:43:05,VALID,1008.69,VALID,0,VALID,86.415,VALID,0.105969,VALID,23.4,VALID,95,VALID,0,
2009-11-04, 00:44:05,VALID,1008.67,VALID,0,VALID,86.4303,VALID,0.105969,VALID,23.3805,VALID,72,VALID,0,
2009-11-04, 00:45:05,VALID,1008.7,VALID,0,VALID,86.4303,VALID,0.105969,VALID,23.4017,VALID,65,VALID,0,
2009-11-04, 00:46:05,VALID,1008.65,VALID,0,VALID,86.415,VALID,0.105969,VALID,23.4,VALID,77,VALID,0,
2009-11-04, 00:47:05,VALID,1008.65,VALID,0,VALID,86.3845,VALID,0,VALID,23.4212,VALID,77,VALID,0,
2009-11-04, 00:48:05,VALID,1008.65,VALID,0,VALID,86.3922,VALID,0.105969,VALID,23.4407,VALID,77,VALID,0,
2009-11-04, 00:49:05,VALID,1008.63,VALID,0,VALID,86.3998,VALID,0,VALID,23.4,VALID,77,VALID,0,
2009-11-04, 00:50:05,VALID,1008.6,VALID,0,VALID,86.415,VALID,0,VALID,23.4,VALID,77,VALID,0,
2009-11-04, 00:51:05,VALID,1008.62,VALID,0,VALID,86.415,VALID,0.105969,VALID,23.4,VALID,77,VALID,0,
2009-11-04, 00:52:05,VALID,1008.59,VALID,0,VALID,86.4074,VALID,0.105969,VALID,23.4212,VALID,77,VALID,0,
2009-11-04, 00:53:05,VALID,1008.59,VALID,0,VALID,86.3922,VALID,0,VALID,23.4212,VALID,77,VALID,0,
2009-11-04, 00:54:05,VALID,1008.6,VALID,0,VALID,86.3845,VALID,0,VALID,23.4,VALID,77,VALID,0,
2009-11-04, 00:55:05,VALID,1008.58,VALID,0,VALID,86.3998,VALID,0,VALID,23.4212,VALID,77,VALID,0,
2009-11-04, 00:56:05,VALID,1008.55,VALID,0,VALID,86.4074,VALID,0.105969,VALID,23.4212,VALID,77,VALID,0,
2009-11-04, 00:57:05,VALID,1008.54,VALID,0,VALID,86.3922,VALID,0.105969,VALID,23.4,VALID,77,VALID,0,
2009-11-04, 00:58:05,VALID,1008.53,VALID,0,VALID,86.3922,VALID,0,VALID,23.4407,VALID,77,VALID,0,
2009-11-04, 00:59:05,VALID,1008.54,VALID,0,VALID,86.3693,VALID,0.105969,VALID,23.4212,VALID,77,VALID,0,
2009-11-04, 01:00:05,VALID,1008.55,VALID,0,VALID,86.3693,VALID,0,VALID,23.4212,VALID,77,VALID,0,
2009-11-04, 01:01:05,VALID,1008.54,VALID,0,VALID,86.3998,VALID,0,VALID,23.4212,VALID,77,VALID,0,
2009-11-04, 01:02:05,VALID,1008.53,VALID,0,VALID,86.3998,VALID,0,VALID,23.3805,VALID,66,VALID,0,
2009-11-04, 01:03:05,VALID,1008.5,VALID,0,VALID,86.4074,VALID,0.105969,VALID,23.3805,VALID,64,VALID,0,
2009-11-04, 01:04:05,VALID,1008.51,VALID,0,VALID,86.4074,VALID,0.105969,VALID,23.4017,VALID,64,VALID,0,
2009-11-04, 01:05:05,VALID,1008.46,VALID,0,VALID,86.3998,VALID,0,VALID,23.3823,VALID,64,VALID,0,
2009-11-04, 01:06:05,VALID,1008.47,VALID,0,VALID,86.4303,VALID,0,VALID,23.3628,VALID,64,VALID,0,
2009-11-04, 01:07:05,VALID,1008.48,VALID,0,VALID,86.415,VALID,0,VALID,23.3415,VALID,64,VALID,0,
2009-11-04, 01:08:05,VALID,1008.48,VALID,0,VALID,86.4074,VALID,0.105969,VALID,23.3628,VALID,64,VALID,0,
2009-11-04, 01:09:05,VALID,1008.48,VALID,0,VALID,86.3922,VALID,0.105969,VALID,23.3415,VALID,64,VALID,0,
2009-11-04, 01:10:05,VALID,1008.52,VALID,0,VALID,86.3922,VALID,0,VALID,23.3433,VALID,64,VALID,0,
2009-11-04, 01:11:05,VALID,1008.51,VALID,0,VALID,86.4074,VALID,0,VALID,23.3433,VALID,64,VALID,0,
2009-11-04, 01:12:05,VALID,1008.5,VALID,0,VALID,86.3617,VALID,0,VALID,23.384,VALID,64,VALID,0,
2009-11-04, 01:13:05,VALID,1008.52,VALID,0,VALID,86.354,VALID,0,VALID,23.3628,VALID,64,VALID,0,
2009-11-04, 01:14:05,VALID,1008.5,VALID,0,VALID,86.354,VALID,0,VALID,23.3645,VALID,64,VALID,0,
2009-11-04, 01:15:05,VALID,1008.47,VALID,0,VALID,86.3922,VALID,0,VALID,23.3238,VALID,64,VALID,0,
2009-11-04, 01:16:05,VALID,1008.5,VALID,0,VALID,86.3922,VALID,0,VALID,23.3451,VALID,64,VALID,0,
2009-11-04, 01:17:05,VALID,1008.49,VALID,0,VALID,86.4074,VALID,0,VALID,23.3043,VALID,64,VALID,0,
2009-11-04, 01:18:05,VALID,1008.47,VALID,0,VALID,86.3845,VALID,0,VALID,23.3256,VALID,64,VALID,0,
2009-11-04, 01:19:05,VALID,1008.46,VALID,0,VALID,86.3845,VALID,0,VALID,23.3256,VALID,120,VALID,0,
2009-11-04, 01:20:05,VALID,1008.44,VALID,0,VALID,86.3922,VALID,0,VALID,23.3061,VALID,154,VALID,0,
2009-11-04, 01:21:05,VALID,1008.44,VALID,0,VALID,86.4074,VALID,0,VALID,23.2848,VALID,155,VALID,0,
2009-11-04, 01:22:05,VALID,1008.45,VALID,0,VALID,86.3998,VALID,0,VALID,23.2866,VALID,155,VALID,0,
2009-11-04, 01:23:05,VALID,1008.45,VALID,0,VALID,86.3922,VALID,0,VALID,23.2654,VALID,155,VALID,0,
2009-11-04, 01:24:05,VALID,1008.51,VALID,0,VALID,86.4074,VALID,0,VALID,23.2671,VALID,155,VALID,0,
2009-11-04, 01:25:05,VALID,1008.49,VALID,0,VALID,86.3922,VALID,0.105969,VALID,23.2654,VALID,155,VALID,0,
2009-11-04, 01:26:05,VALID,1008.52,VALID,0,VALID,86.3845,VALID,0.105969,VALID,23.2636,VALID,155,VALID,0,
2009-11-04, 01:27:05,VALID,1008.46,VALID,0,VALID,86.3922,VALID,0,VALID,23.2636,VALID,155,VALID,0,
2009-11-04, 01:28:05,VALID,1008.43,VALID,0,VALID,86.3693,VALID,0.105969,VALID,23.3043,VALID,155,VALID,0,
2009-11-04, 01:29:05,VALID,1008.41,VALID,0,VALID,86.3464,VALID,0,VALID,23.3238,VALID,155,VALID,0,
2009-11-04, 01:30:05,VALID,1008.36,VALID,0,VALID,86.3769,VALID,0.105969,VALID,23.2831,VALID,155,VALID,0,
2009-11-04, 01:31:05,VALID,1008.38,VALID,0,VALID,86.3693,VALID,0.105969,VALID,23.2654,VALID,155,VALID,0,
2009-11-04, 01:32:05,VALID,1008.36,VALID,0,VALID,86.3769,VALID,0.105969,VALID,23.2636,VALID,155,VALID,0,
2009-11-04, 01:33:05,VALID,1008.36,VALID,0,VALID,86.3617,VALID,0,VALID,23.3043,VALID,155,VALID,0,
2009-11-04, 01:34:04,VALID,1008.33,VALID,0,VALID,86.354,VALID,0.105969,VALID,23.3043,VALID,155,VALID,0,
2009-11-04, 01:35:04,VALID,1008.32,VALID,0,VALID,86.3388,VALID,0,VALID,23.3026,VALID,155,VALID,0,
2009-11-04, 01:36:04,VALID,1008.31,VALID,0,VALID,86.3693,VALID,0.105969,VALID,23.3026,VALID,155,VALID,0,
2009-11-04, 01:37:04,VALID,1008.31,VALID,0,VALID,86.3693,VALID,0,VALID,23.3238,VALID,155,VALID,0,
2009-11-04, 01:38:04,VALID,1008.31,VALID,0,VALID,86.3388,VALID,0.105969,VALID,23.3433,VALID,155,VALID,0,
2009-11-04, 01:39:04,VALID,1008.34,VALID,0,VALID,86.3388,VALID,0,VALID,23.3433,VALID,155,VALID,0,
2009-11-04, 01:40:04,VALID,1008.34,VALID,0,VALID,86.3312,VALID,0,VALID,23.3415,VALID,155,VALID,0,
2009-11-04, 01:41:04,VALID,1008.34,VALID,0,VALID,86.3388,VALID,0,VALID,23.3415,VALID,155,VALID,0,
2009-11-04, 01:42:04,VALID,1008.36,VALID,0,VALID,86.3388,VALID,0,VALID,23.3628,VALID,155,VALID,0,
2009-11-04, 01:43:04,VALID,1008.34,VALID,0,VALID,86.3464,VALID,0.105969,VALID,23.361,VALID,155,VALID,0,
2009-11-04, 01:44:04,VALID,1008.35,VALID,0,VALID,86.354,VALID,0,VALID,23.361,VALID,155,VALID,0,
2009-11-04, 01:45:04,VALID,1008.34,VALID,0,VALID,86.354,VALID,0.105969,VALID,23.4017,VALID,155,VALID,0,
2009-11-04, 01:46:04,VALID,1008.3,VALID,0,VALID,86.3693,VALID,0.105969,VALID,23.4,VALID,152,VALID,0,
2009-11-04, 01:47:04,VALID,1008.3,VALID,0,VALID,86.354,VALID,0.105969,VALID,23.4212,VALID,142,VALID,0,
2009-11-04, 01:48:04,VALID,1008.29,VALID,0,VALID,86.3693,VALID,0.105969,VALID,23.4407,VALID,125,VALID,0,
2009-11-04, 01:49:04,VALID,1008.26,VALID,0,VALID,86.3464,VALID,0,VALID,23.4194,VALID,53,VALID,0,
2009-11-04, 01:50:04,VALID,1008.23,VALID,0,VALID,86.3769,VALID,0,VALID,23.4407,VALID,53,VALID,0,
2009-11-04, 01:51:04,VALID,1008.21,VALID,0,VALID,86.3845,VALID,0,VALID,23.4017,VALID,48,VALID,0,
2009-11-04, 01:52:04,VALID,1008.21,VALID,0,VALID,86.4227,VALID,0.105969,VALID,23.4017,VALID,48,VALID,0,
2009-11-04, 01:53:04,VALID,1008.19,VALID,0,VALID,86.4303,VALID,0,VALID,23.3805,VALID,48,VALID,0,
2009-11-04, 01:54:04,VALID,1008.17,VALID,0,VALID,86.4227,VALID,0,VALID,23.4017,VALID,48,VALID,0,
2009-11-04, 01:55:04,VALID,1008.17,VALID,0,VALID,86.415,VALID,0.105969,VALID,23.3805,VALID,48,VALID,0,
2009-11-04, 01:56:04,VALID,1008.15,VALID,0,VALID,86.415,VALID,0,VALID,23.4017,VALID,48,VALID,0,
2009-11-04, 01:57:04,VALID,1008.13,VALID,0,VALID,86.3845,VALID,0,VALID,23.4212,VALID,48,VALID,0,
2009-11-04, 01:58:04,VALID,1008.11,VALID,0,VALID,86.3922,VALID,0.105969,VALID,23.4212,VALID,48,VALID,0,
2009-11-04, 01:59:04,VALID,1008.1,VALID,0,VALID,86.4074,VALID,0,VALID,23.3805,VALID,48,VALID,0,
2009-11-04, 02:00:04,VALID,1008.11,VALID,0,VALID,86.3922,VALID,0,VALID,23.4017,VALID,48,VALID,0,
2009-11-04, 02:01:04,VALID,1008.1,VALID,0,VALID,86.3845,VALID,0,VALID,23.4,VALID,48,VALID,0,
2009-11-04, 02:02:04,VALID,1008.14,VALID,0,VALID,86.354,VALID,0,VALID,23.4,VALID,48,VALID,0,
2009-11-04, 02:03:04,VALID,1008.13,VALID,0,VALID,86.3769,VALID,0.105969,VALID,23.4212,VALID,48,VALID,0,
2009-11-04, 02:04:04,VALID,1008.16,VALID,0,VALID,86.3845,VALID,0.105969,VALID,23.4212,VALID,48,VALID,0,
2009-11-04, 02:05:04,VALID,1008.12,VALID,0,VALID,86.3693,VALID,0,VALID,23.4,VALID,48,VALID,0,
2009-11-04, 02:06:04,VALID,1008.1,VALID,0,VALID,86.354,VALID,0,VALID,23.4389,VALID,48,VALID,0,
2009-11-04, 02:07:04,VALID,1008.1,VALID,0,VALID,86.3312,VALID,0,VALID,23.4602,VALID,74,VALID,0,
2009-11-04, 02:08:04,VALID,1008.08,VALID,0,VALID,86.3312,VALID,0.105969,VALID,23.4584,VALID,80,VALID,0,
2009-11-04, 02:09:04,VALID,1008.04,VALID,0,VALID,86.3083,VALID,0.105969,VALID,23.4779,VALID,80,VALID,0,
2009-11-04, 02:10:04,VALID,1008.04,VALID,0,VALID,86.3007,VALID,0,VALID,23.5399,VALID,80,VALID,0,
2009-11-04, 02:11:04,VALID,1008.02,VALID,0,VALID,86.293,VALID,0,VALID,23.5594,VALID,80,VALID,0,
2009-11-04, 02:12:04,VALID,1008.01,VALID,0,VALID,86.2854,VALID,0,VALID,23.5789,VALID,80,VALID,0,
2009-11-04, 02:13:04,VALID,1008.03,VALID,0,VALID,86.293,VALID,0,VALID,23.5576,VALID,94,VALID,0,
2009-11-04, 02:14:04,VALID,1008.02,VALID,0,VALID,86.3388,VALID,0,VALID,23.5186,VALID,122,VALID,0,
2009-11-04, 02:15:04,VALID,1008.04,VALID,0,VALID,86.3235,VALID,0,VALID,23.5186,VALID,127,VALID,0.782031,
2009-11-04, 02:16:04,VALID,1008.01,VALID,0,VALID,86.3312,VALID,0,VALID,23.5186,VALID,94,VALID,0.712109,
2009-11-04, 02:17:04,VALID,1008.01,VALID,0,VALID,86.3312,VALID,0,VALID,23.4992,VALID,108,VALID,0.862109,
2009-11-04, 02:18:04,VALID,1008.03,VALID,0,VALID,86.354,VALID,0,VALID,23.4797,VALID,87,VALID,0.687109,
2009-11-04, 02:19:04,VALID,1008.02,VALID,0,VALID,86.354,VALID,0,VALID,23.4815,VALID,113,VALID,0.869922,
2009-11-04, 02:20:04,VALID,1008.02,VALID,0,VALID,86.3769,VALID,0,VALID,23.4407,VALID,109,VALID,0.963281,
2009-11-04, 02:21:04,VALID,1008.05,VALID,0,VALID,86.3922,VALID,0,VALID,23.462,VALID,109,VALID,0.564844,
2009-11-04, 02:22:04,VALID,1008.03,VALID,0,VALID,86.3464,VALID,0,VALID,23.462,VALID,105,VALID,0.664844,
2009-11-04, 02:23:04,VALID,1008.03,VALID,0,VALID,86.3312,VALID,0,VALID,23.4815,VALID,80,VALID,0.419141,
2009-11-04, 02:24:04,VALID,1008.03,VALID,0,VALID,86.3007,VALID,0,VALID,23.4992,VALID,69,VALID,0.530078,
2009-11-04, 02:25:04,VALID,1008.01,VALID,0,VALID,86.3159,VALID,0,VALID,23.4992,VALID,71,VALID,0.708203,
2009-11-04, 02:26:04,VALID,1007.98,VALID,0,VALID,86.354,VALID,0,VALID,23.4797,VALID,81,VALID,0.546484,
2009-11-04, 02:27:04,VALID,1007.94,VALID,0,VALID,86.3388,VALID,0,VALID,23.4797,VALID,79,VALID,0.451172,
2009-11-04, 02:28:04,VALID,1007.92,VALID,0,VALID,86.354,VALID,0,VALID,23.4602,VALID,79,VALID,0.827344,
2009-11-04, 02:29:04,VALID,1007.94,VALID,0,VALID,86.3845,VALID,0,VALID,23.4407,VALID,80,VALID,0.530078,
2009-11-04, 02:30:04,VALID,1007.91,VALID,0,VALID,86.3769,VALID,0,VALID,23.4212,VALID,57,VALID,0.840625,
2009-11-04, 02:31:04,VALID,1007.89,VALID,0,VALID,86.3845,VALID,0,VALID,23.4017,VALID,63,VALID,0.838281,
2009-11-04, 02:32:04,VALID,1007.89,VALID,0,VALID,86.3922,VALID,0,VALID,23.4212,VALID,73,VALID,0.758594,
2009-11-04, 02:33:04,VALID,1007.89,VALID,0,VALID,86.3845,VALID,0,VALID,23.4017,VALID,69,VALID,0.539063,
2009-11-04, 02:34:04,VALID,1007.86,VALID,0,VALID,86.3617,VALID,0.105969,VALID,23.3805,VALID,69,VALID,0.467969,
2009-11-04, 02:35:04,VALID,1007.86,VALID,0,VALID,86.3464,VALID,0,VALID,23.4,VALID,75,VALID,0.682422,
2009-11-04, 02:36:04,VALID,1007.86,VALID,0,VALID,86.354,VALID,0,VALID,23.4017,VALID,76,VALID,0.437891,
2009-11-04, 02:37:04,VALID,1007.86,VALID,0,VALID,86.3464,VALID,0,VALID,23.4212,VALID,76,VALID,0.552344,
2009-11-04, 02:38:04,VALID,1007.83,VALID,0,VALID,86.3464,VALID,0,VALID,23.4212,VALID,76,VALID,0.523828,
2009-11-04, 02:39:04,VALID,1007.8,VALID,0,VALID,86.3617,VALID,0,VALID,23.4017,VALID,76,VALID,0.319922,
2009-11-04, 02:40:04,VALID,1007.84,VALID,0,VALID,86.3312,VALID,0,VALID,23.4212,VALID,76,VALID,0.255859,
2009-11-04, 02:41:04,VALID,1007.81,VALID,0,VALID,86.3617,VALID,0,VALID,23.4017,VALID,76,VALID,0.295703,
2009-11-04, 02:42:04,VALID,1007.82,VALID,0,VALID,86.3312,VALID,0,VALID,23.4407,VALID,76,VALID,0.322266,
2009-11-04, 02:43:04,VALID,1007.85,VALID,0,VALID,86.3464,VALID,0.105969,VALID,23.4212,VALID,76,VALID,0.343359,
2009-11-04, 02:44:04,VALID,1007.84,VALID,0,VALID,86.3235,VALID,0,VALID,23.4212,VALID,76,VALID,0.458594,
2009-11-04, 02:45:04,VALID,1007.83,VALID,0,VALID,86.3388,VALID,0,VALID,23.4407,VALID,76,VALID,0.430469,
2009-11-04, 02:46:04,VALID,1007.84,VALID,0,VALID,86.3159,VALID,0,VALID,23.4389,VALID,76,VALID,0.282422,
2009-11-04, 02:47:04,VALID,1007.87,VALID,0,VALID,86.3007,VALID,0,VALID,23.4779,VALID,78,VALID,0.46875,
2009-11-04, 02:48:04,VALID,1007.88,VALID,0,VALID,86.3007,VALID,0,VALID,23.4584,VALID,78,VALID,0.296094,
2009-11-04, 02:49:04,VALID,1007.85,VALID,0,VALID,86.3159,VALID,0.105969,VALID,23.4389,VALID,78,VALID,0.621094,
2009-11-04, 02:50:04,VALID,1007.84,VALID,0,VALID,86.3235,VALID,0,VALID,23.4194,VALID,78,VALID,0.311328,
2009-11-04, 02:51:04,VALID,1007.8,VALID,0,VALID,86.3388,VALID,0,VALID,23.4602,VALID,78,VALID,0.00078125,
2009-11-04, 02:52:04,VALID,1007.82,VALID,0,VALID,86.3312,VALID,0.105969,VALID,23.4389,VALID,78,VALID,0,
2009-11-04, 02:53:04,VALID,1007.84,VALID,0,VALID,86.3617,VALID,0.105969,VALID,23.4389,VALID,78,VALID,0,
2009-11-04, 02:54:04,VALID,1007.85,VALID,0,VALID,86.3617,VALID,0,VALID,23.4602,VALID,78,VALID,0,
2009-11-04, 02:55:04,VALID,1007.82,VALID,0,VALID,86.3464,VALID,0,VALID,23.4584,VALID,78,VALID,0,
2009-11-04, 02:56:04,VALID,1007.8,VALID,0,VALID,86.3617,VALID,0,VALID,23.4194,VALID,78,VALID,0,
2009-11-04, 02:57:04,VALID,1007.76,VALID,0,VALID,86.3693,VALID,0.105969,VALID,23.4602,VALID,77,VALID,0,
2009-11-04, 02:58:04,VALID,1007.74,VALID,0,VALID,86.3845,VALID,0,VALID,23.4602,VALID,77,VALID,0,
2009-11-04, 02:59:04,VALID,1007.72,VALID,0,VALID,86.3998,VALID,0,VALID,23.4602,VALID,77,VALID,0,
2009-11-04, 03:00:04,VALID,1007.71,VALID,0,VALID,86.415,VALID,0,VALID,23.4407,VALID,77,VALID,0,
2009-11-04, 03:01:04,VALID,1007.7,VALID,0,VALID,86.4303,VALID,0,VALID,23.4407,VALID,63,VALID,0,
2009-11-04, 03:02:04,VALID,1007.68,VALID,0,VALID,86.4227,VALID,0,VALID,23.4407,VALID,58,VALID,0,
2009-11-04, 03:03:04,VALID,1007.68,VALID,0,VALID,86.4379,VALID,0,VALID,23.4194,VALID,56,VALID,0,
2009-11-04, 03:04:04,VALID,1007.68,VALID,0,VALID,86.4303,VALID,0.105969,VALID,23.4,VALID,56,VALID,0,
2009-11-04, 03:05:04,VALID,1007.65,VALID,0,VALID,86.4379,VALID,0,VALID,23.4,VALID,56,VALID,0,
2009-11-04, 03:06:04,VALID,1007.63,VALID,0,VALID,86.4303,VALID,0,VALID,23.4212,VALID,56,VALID,0,
2009-11-04, 03:07:04,VALID,1007.59,VALID,0,VALID,86.4608,VALID,0.105969,VALID,23.4212,VALID,348,VALID,0,
2009-11-04, 03:08:04,VALID,1007.58,VALID,0,VALID,86.4608,VALID,0,VALID,23.4,VALID,343,VALID,0,
2009-11-04, 03:09:04,VALID,1007.6,VALID,0,VALID,86.4837,VALID,0.105969,VALID,23.4017,VALID,343,VALID,0,
2009-11-04, 03:10:04,VALID,1007.6,VALID,0,VALID,86.5065,VALID,0,VALID,23.4017,VALID,343,VALID,0,
2009-11-04, 03:11:04,VALID,1007.59,VALID,0,VALID,86.4913,VALID,0,VALID,23.3805,VALID,343,VALID,0,
2009-11-04, 03:12:04,VALID,1007.6,VALID,0,VALID,86.4989,VALID,0,VALID,23.3823,VALID,343,VALID,0,
2009-11-04, 03:13:04,VALID,1007.6,VALID,0,VALID,86.4989,VALID,0,VALID,23.3415,VALID,343,VALID,0,
2009-11-04, 03:14:04,VALID,1007.61,VALID,0,VALID,86.4989,VALID,0.105969,VALID,23.3628,VALID,343,VALID,0,
2009-11-04, 03:15:04,VALID,1007.58,VALID,0,VALID,86.537,VALID,0,VALID,23.3415,VALID,343,VALID,0,
2009-11-04, 03:16:04,VALID,1007.56,VALID,0,VALID,86.537,VALID,0,VALID,23.322,VALID,343,VALID,0,
2009-11-04, 03:17:04,VALID,1007.57,VALID,0,VALID,86.5294,VALID,0,VALID,23.3238,VALID,343,VALID,0,
2009-11-04, 03:18:04,VALID,1007.53,VALID,0,VALID,86.5599,VALID,0.105969,VALID,23.2831,VALID,343,VALID,0,
2009-11-04, 03:19:04,VALID,1007.51,VALID,0,VALID,86.5676,VALID,0.105969,VALID,23.2848,VALID,343,VALID,0,
2009-11-04, 03:20:04,VALID,1007.48,VALID,0,VALID,86.5676,VALID,0,VALID,23.2441,VALID,343,VALID,0,
2009-11-04, 03:21:04,VALID,1007.47,VALID,0,VALID,86.5447,VALID,0,VALID,23.2654,VALID,343,VALID,0,
2009-11-04, 03:22:04,VALID,1007.47,VALID,0,VALID,86.5599,VALID,0,VALID,23.2441,VALID,343,VALID,0,
2009-11-04, 03:23:04,VALID,1007.47,VALID,0,VALID,86.5599,VALID,0,VALID,23.2459,VALID,343,VALID,0,
2009-11-04, 03:24:04,VALID,1007.46,VALID,0,VALID,86.5752,VALID,0,VALID,23.2459,VALID,343,VALID,0,
2009-11-04, 03:25:04,VALID,1007.48,VALID,0,VALID,86.5981,VALID,0.105969,VALID,23.2051,VALID,343,VALID,0,
2009-11-04, 03:26:04,VALID,1007.47,VALID,0,VALID,86.5828,VALID,0.105969,VALID,23.2051,VALID,343,VALID,0,
2009-11-04, 03:27:04,VALID,1007.5,VALID,0,VALID,86.5828,VALID,0,VALID,23.2069,VALID,343,VALID,0,
2009-11-04, 03:28:04,VALID,1007.49,VALID,0,VALID,86.5904,VALID,0,VALID,23.1857,VALID,343,VALID,0,
2009-11-04, 03:29:04,VALID,1007.51,VALID,0,VALID,86.5828,VALID,0.105969,VALID,23.1857,VALID,343,VALID,0,
2009-11-04, 03:30:04,VALID,1007.53,VALID,0,VALID,86.5981,VALID,0.105969,VALID,23.1857,VALID,343,VALID,0,
2009-11-04, 03:31:04,VALID,1007.54,VALID,0,VALID,86.5904,VALID,0,VALID,23.1874,VALID,343,VALID,0,
2009-11-04, 03:32:04,VALID,1007.55,VALID,0,VALID,86.6057,VALID,0,VALID,23.1467,VALID,343,VALID,0,
2009-11-04, 03:33:04,VALID,1007.56,VALID,0,VALID,86.6209,VALID,0.105969,VALID,23.1467,VALID,343,VALID,0,
2009-11-04, 03:34:04,VALID,1007.59,VALID,0,VALID,86.6209,VALID,0.105969,VALID,23.1485,VALID,343,VALID,0,
2009-11-04, 03:35:04,VALID,1007.57,VALID,0,VALID,86.6209,VALID,0.105969,VALID,23.1272,VALID,343,VALID,0,
2009-11-04, 03:36:04,VALID,1007.57,VALID,0,VALID,86.6209,VALID,0.105969,VALID,23.129,VALID,343,VALID,0,
2009-11-04, 03:37:04,VALID,1007.58,VALID,0,VALID,86.5904,VALID,0.105969,VALID,23.1467,VALID,343,VALID,0,
2009-11-04, 03:38:04,VALID,1007.62,VALID,0,VALID,86.6133,VALID,0.105969,VALID,23.129,VALID,343,VALID,0,
2009-11-04, 03:39:04,VALID,1007.62,VALID,0,VALID,86.6209,VALID,0.105969,VALID,23.1272,VALID,343,VALID,0,
2009-11-04, 03:40:04,VALID,1007.66,VALID,0,VALID,86.5752,VALID,0,VALID,23.1485,VALID,343,VALID,0,
2009-11-04, 03:41:04,VALID,1007.64,VALID,0,VALID,86.5676,VALID,0,VALID,23.1467,VALID,343,VALID,0,
2009-11-04, 03:42:04,VALID,1007.65,VALID,0,VALID,86.5676,VALID,0,VALID,23.1467,VALID,343,VALID,0,
2009-11-04, 03:43:04,VALID,1007.62,VALID,0,VALID,86.5523,VALID,0,VALID,23.1662,VALID,343,VALID,0,
2009-11-04, 03:44:04,VALID,1007.61,VALID,0,VALID,86.5523,VALID,0,VALID,23.1874,VALID,343,VALID,0,
2009-11-04, 03:45:04,VALID,1007.59,VALID,0,VALID,86.5294,VALID,0.105969,VALID,23.1874,VALID,343,VALID,0,
2009-11-04, 03:46:04,VALID,1007.54,VALID,0,VALID,86.5676,VALID,0.105969,VALID,23.1467,VALID,343,VALID,0,
2009-11-04, 03:47:04,VALID,1007.57,VALID,0,VALID,86.5752,VALID,0,VALID,23.1679,VALID,343,VALID,0,
2009-11-04, 03:48:04,VALID,1007.55,VALID,0,VALID,86.5904,VALID,0,VALID,23.1272,VALID,343,VALID,0,
2009-11-04, 03:49:04,VALID,1007.57,VALID,0,VALID,86.5981,VALID,0,VALID,23.1679,VALID,343,VALID,0,
2009-11-04, 03:50:04,VALID,1007.57,VALID,0,VALID,86.5752,VALID,0.105969,VALID,23.1467,VALID,343,VALID,0,
2009-11-04, 03:51:04,VALID,1007.6,VALID,0,VALID,86.5599,VALID,0.105969,VALID,23.1874,VALID,343,VALID,0,